Location: Vale
(35.4830°N, 81.3830°W)
Time: 07:47:25
(UTC-04:00)

Amateur Radio Satellites - All Passes

Search period start: 01 November 2014 07:17
Search period end: 02 November 2014 06:17
Location: Vale, 35.4830°N, 81.3830°W

Satellite Date Start Highest point End Downlink Frequencies (MHz)
Time Altitude Azimuth
Uosat F 01 Nov 07:24:30 07:26:56 14° 297° (WNW) 07:29:22 435.120 FM
JAS-2 01 Nov 07:32:44 07:40:22 56° 289° (WNW) 07:47:40 435.800 - 435.900 CW/SSB, 435.910 FM
MaSat-1 01 Nov 07:35:57 07:36:12 10° 58° (ENE) 07:36:26 437.345 MHz
AO-7 01 Nov 07:46:59 07:52:36 21° 304° (NW) 07:58:14 29.400 - 29.500 MHz
Hamsat 01 Nov 08:04:18 08:07:40 24° 289° (WNW) 08:11:04 145.90 MHz
PANSAT 01 Nov 08:05:45 08:08:23 18° 195° (SSW) 08:11:01 not established
SO-67 01 Nov 08:21:29 08:24:55 66° 101° (E) 08:28:19 435.3500 MHz FM
STRAND 1 01 Nov 08:56:56 08:59:25 14° 268° (W) 09:01:55 ?
RS-15 01 Nov 09:06:16 09:14:55 26° 257° (WSW) 09:23:53 29.354 - 29.394 USB, Beacon 29.352 USB
MaSat-1 01 Nov 09:10:19 09:11:25 12° 254° (WSW) 09:12:31 437.345 MHz
HO-68 01 Nov 09:21:27 09:27:05 24° 95° (E) 09:32:39 435.675 MHz FM
ISS 01 Nov 09:49:31 09:52:44 51° 134° (SE) 09:55:58 145.800 FM
UKube-1 01 Nov 10:14:49 10:17:52 18° 95° (E) 10:20:53 145.840 MHz, 145.915 MHz
Sapphire 01 Nov 10:43:52 10:46:09 13° 46° (NE) 10:48:25 437.095 MHz 1200 baud AX-25 AFSK
Oscar 11 01 Nov 10:48:04 10:52:13 45° 99° (E) 10:56:20 145.825 FM, Beacon 2401.500 USB
KITSAT 1 01 Nov 10:56:10 11:04:04 61° 112° (ESE) 11:11:59 435.175 FM
SO-50 01 Nov 10:57:35 11:01:45 40° 114° (ESE) 11:06:02 436.795 FM
PCSat 01 Nov 11:04:12 11:08:08 20° 51° (NE) 11:12:02 145.825 MHz
FUNcube-1 01 Nov 11:07:30 11:11:08 29° 97° (E) 11:14:43 145.950 - 145.970 MHz USB
HO-68 01 Nov 11:08:04 11:15:03 56° 291° (WNW) 11:21:59 435.675 MHz FM
ISS 01 Nov 11:27:19 11:29:38 17° 331° (NNW) 11:31:57 145.800 FM
UKube-1 01 Nov 11:50:11 11:54:04 32° 289° (WNW) 11:57:57 145.840 MHz, 145.915 MHz
ZACube-1 01 Nov 12:00:46 12:04:52 59° 285° (WNW) 12:08:56 437.345 MHz
Sapphire 01 Nov 12:24:53 12:30:21 87° 64° (ENE) 12:35:46 437.095 MHz 1200 baud AX-25 AFSK
Oscar 11 01 Nov 12:25:49 12:27:58 14° 294° (WNW) 12:30:06 145.825 FM, Beacon 2401.500 USB
SO-50 01 Nov 12:39:05 12:42:27 20° 311° (NW) 12:45:53 436.795 FM
FUNcube-1 01 Nov 12:44:22 12:47:18 19° 291° (WNW) 12:50:12 145.950 - 145.970 MHz USB
PCSat 01 Nov 12:46:35 12:51:52 54° 248° (WSW) 12:57:06 145.825 MHz
KITSAT 1 01 Nov 12:53:04 12:59:54 30° 311° (NW) 13:06:47 435.175 FM
Oscar 16 01 Nov 12:58:33 13:01:32 16° 64° (ENE) 13:04:32 437.025 USB, Beacon 2401.1428
JAS-1B 01 Nov 13:02:38 13:06:17 18° 63° (ENE) 13:09:55 435.800 - 435.900 CW/SSB
UOSAT-12 01 Nov 13:15:37 13:20:14 82° 300° (WNW) 13:24:57 437.025 FM, 437.400 FM
AO-Echo 01 Nov 13:25:43 13:28:15 14° 63° (ENE) 13:30:49 ?
Uribyol 2 01 Nov 13:33:40 13:36:24 15° 63° (ENE) 13:39:08 436.500 FM
ITAMSAT 1 01 Nov 13:41:27 13:44:35 16° 64° (ENE) 13:47:43 435.822 SSB
Oscar 19 01 Nov 13:48:14 13:53:09 48° 72° (ENE) 13:58:03 437.125 CW, 437.150 USB
Saudisat 1A 01 Nov 13:48:52 13:49:02 10° 43° (NE) 13:49:12 436.775 MHz
AO-27 01 Nov 14:27:11 14:32:09 46° 72° (ENE) 14:37:08 436.795 MHz FM
Oscar 16 01 Nov 14:35:21 14:40:23 56° 259° (W) 14:45:27 437.025 USB, Beacon 2401.1428
Gurwin Techsat 1B 01 Nov 14:48:55 14:53:47 38° 71° (ENE) 14:58:40 435.225 FM
JAS-1B 01 Nov 14:50:54 14:56:32 51° 260° (W) 15:02:04 435.800 - 435.900 CW/SSB
TMSAT-1 01 Nov 14:54:50 14:59:28 32° 69° (ENE) 15:04:07 436.925 FM
AO-7 01 Nov 14:59:40 15:04:27 17° 54° (NE) 15:09:14 29.400 - 29.500 MHz
UOSAT-12 01 Nov 15:00:08 15:01:07 11° 318° (NW) 15:02:07 437.025 FM, 437.400 FM
AO-Echo 01 Nov 15:01:29 15:06:23 62° 259° (W) 15:11:29 ?
Uribyol 2 01 Nov 15:10:07 15:15:17 63° 258° (WSW) 15:20:29 436.500 FM
ITAMSAT 1 01 Nov 15:18:28 15:23:34 56° 259° (W) 15:28:42 435.822 SSB
Saudisat 1A 01 Nov 15:24:48 15:29:14 87° 61° (ENE) 15:33:39 436.775 MHz
Oscar 19 01 Nov 15:29:25 15:32:41 17° 267° (W) 15:35:58 437.125 CW, 437.150 USB
AO-27 01 Nov 16:08:19 16:11:50 18° 266° (W) 16:15:22 436.795 MHz FM
ISS 01 Nov 16:21:02 16:23:34 20° 31° (NNE) 16:26:07 145.800 FM
Gurwin Techsat 1B 01 Nov 16:29:42 16:33:48 23° 265° (W) 16:37:56 435.225 FM
TMSAT-1 01 Nov 16:34:52 16:39:19 27° 264° (W) 16:43:48 436.925 FM
AO-7 01 Nov 16:47:45 16:56:01 85° 72° (ENE) 17:04:20 29.400 - 29.500 MHz
Uosat F 01 Nov 16:53:54 16:58:51 63° 74° (ENE) 17:03:51 435.120 FM
Hamsat 01 Nov 17:20:38 17:22:19 12° 67° (ENE) 17:23:59 145.90 MHz
OPAL 01 Nov 17:33:05 17:34:38 11° 94° (E) 17:36:11 ?
JAS-2 01 Nov 17:40:48 17:46:48 51° 70° (ENE) 17:53:35 435.800 - 435.900 CW/SSB, 435.910 FM
ISS 01 Nov 17:57:13 18:00:23 41° 227° (SW) 18:03:32 145.800 FM
Uosat F 01 Nov 18:36:03 18:38:00 12° 268° (W) 18:39:58 435.120 FM
AO-7 01 Nov 18:44:43 18:49:34 17° 267° (W) 18:54:28 29.400 - 29.500 MHz
SO-67 01 Nov 18:52:36 18:54:19 13° 69° (ENE) 18:56:02 435.3500 MHz FM
Hamsat 01 Nov 18:53:47 18:57:49 47° 261° (W) 19:01:51 145.90 MHz
KITSAT 1 01 Nov 18:53:47 18:59:18 19° 42° (NE) 19:04:47 435.175 FM
OPAL 01 Nov 19:08:59 19:13:54 66° 288° (WNW) 19:18:47 ?
JAS-2 01 Nov 19:27:20 19:32:12 24° 269° (W) 19:37:34 435.800 - 435.900 CW/SSB, 435.910 FM
STRAND 1 01 Nov 19:29:10 19:33:25 26° 96° (E) 19:37:37 ?
SO-50 01 Nov 19:32:21 19:35:54 20° 49° (NE) 19:39:28 436.795 FM
HO-68 01 Nov 19:49:40 19:53:01 14° 56° (NE) 19:56:23 435.675 MHz FM
Oscar 10/S400 01 Nov 20:10:27 20:42:04 63° 197° (SSW) 05:36:59 145.825 - 145.975 CW/USB, Beacon 145.810 USB
AO-40 01 Nov 20:14:56 22:33:38 38° 207° (SSW) 02:35:25 Beacon 2401.320
SO-67 01 Nov 20:24:04 20:27:00 26° 263° (W) 20:29:57 435.3500 MHz FM
KITSAT 1 01 Nov 20:47:47 20:55:54 84° 63° (ENE) 21:03:58 435.175 FM
STRAND 1 01 Nov 21:08:02 21:12:34 32° 291° (WNW) 21:17:04 ?
UKube-1 01 Nov 21:09:02 21:10:36 12° 65° (ENE) 21:12:11 145.840 MHz, 145.915 MHz
RS-15 01 Nov 21:11:39 21:22:32 67° 113° (ESE) 21:33:16 29.354 - 29.394 USB, Beacon 29.352 USB
SO-50 01 Nov 21:12:01 21:16:42 49° 245° (WSW) 21:21:24 436.795 FM
HO-68 01 Nov 21:32:27 21:39:37 83° 73° (ENE) 21:46:50 435.675 MHz FM
Oscar 11 01 Nov 21:40:36 21:44:06 25° 70° (ENE) 21:47:37 145.825 FM, Beacon 2401.500 USB
UOSAT-12 01 Nov 21:48:21 21:52:44 37° 54° (NE) 21:57:01 437.025 FM, 437.400 FM
FUNcube-1 01 Nov 22:01:27 22:04:33 19° 69° (ENE) 22:07:37 145.950 - 145.970 MHz USB
MaSat-1 01 Nov 22:40:13 22:44:00 46° 295° (WNW) 22:47:27 437.345 MHz
UKube-1 01 Nov 22:42:00 22:46:16 55° 259° (W) 22:50:34 145.840 MHz, 145.915 MHz
KITSAT 1 01 Nov 22:45:35 22:50:15 17° 259° (WSW) 22:54:56 435.175 FM
ZACube-1 01 Nov 22:53:33 22:58:05 74° 76° (ENE) 23:02:32 437.345 MHz
Oscar 11 01 Nov 23:16:42 23:20:10 24° 264° (W) 23:23:39 145.825 FM, Beacon 2401.500 USB
HO-68 01 Nov 23:24:13 23:27:59 15° 268° (W) 23:31:46 435.675 MHz FM
RS-15 01 Nov 23:25:55 23:35:34 34° 316° (NW) 23:45:16 29.354 - 29.394 USB, Beacon 29.352 USB
UOSAT-12 01 Nov 23:29:06 23:32:36 21° 250° (WSW) 23:36:03 437.025 FM, 437.400 FM
FUNcube-1 01 Nov 23:36:29 23:40:39 35° 262° (W) 23:44:45 145.950 - 145.970 MHz USB
Sapphire 02 Nov 01:22:33 01:25:58 17° 104° (ESE) 01:29:24 437.095 MHz 1200 baud AX-25 AFSK
PCSat 02 Nov 01:42:36 01:47:14 30° 108° (ESE) 01:51:54 145.825 MHz
RS-15 02 Nov 01:48:29 01:52:52 13° 349° (N) 01:57:17 29.354 - 29.394 USB, Beacon 29.352 USB
Oscar 19 02 Nov 01:03:36 01:07:29 21° 95° (E) 01:11:20 437.125 CW, 437.150 USB
JAS-1B 02 Nov 01:35:17 01:42:37 53° 101° (E) 01:51:16 435.800 - 435.900 CW/SSB
PANSAT 02 Nov 01:42:47 01:43:52 11° 159° (SSE) 01:44:57 not established
AO-27 02 Nov 01:44:05 01:48:00 21° 95° (E) 01:51:53 436.795 MHz FM
Oscar 16 02 Nov 01:50:00 01:55:06 67° 102° (ESE) 02:00:11 437.025 USB, Beacon 2401.1428
Sapphire 02 Nov 02:03:37 02:08:53 54° 300° (WNW) 02:14:12 437.095 MHz 1200 baud AX-25 AFSK
Gurwin Techsat 1B 02 Nov 02:08:57 02:12:43 19° 94° (E) 02:16:28 435.225 FM
AO-Echo 02 Nov 02:11:43 02:16:58 56° 100° (E) 02:22:04 ?
TMSAT-1 02 Nov 02:14:44 02:17:53 16° 93° (E) 02:21:00 436.925 FM
PCSat 02 Nov 02:25:42 02:30:31 33° 304° (NW) 02:35:23 145.825 MHz
Uribyol 2 02 Nov 02:26:00 02:31:08 60° 101° (E) 02:36:13 436.500 FM
ITAMSAT 1 02 Nov 02:34:21 02:39:34 68° 102° (ESE) 02:44:43 435.822 SSB
Oscar 19 02 Nov 02:42:11 02:46:53 38° 289° (WNW) 02:51:35 437.125 CW, 437.150 USB
RS-15 02 Nov 03:04:56 03:12:04 18° 28° (NNE) 03:19:19 29.354 - 29.394 USB, Beacon 29.352 USB
PANSAT 02 Nov 03:20:17 03:23:25 24° 170° (S) 03:26:33 not established
AO-27 02 Nov 03:22:46 03:27:36 40° 289° (WNW) 03:32:25 436.795 MHz FM
JAS-1B 02 Nov 03:26:40 03:32:54 31° 293° (WNW) 03:40:04 435.800 - 435.900 CW/SSB
Oscar 16 02 Nov 03:31:31 03:33:51 13° 297° (WNW) 03:36:10 437.025 USB, Beacon 2401.1428
OPAL 02 Nov 03:44:19 03:47:33 17° 63° (ENE) 03:50:45 ?
Gurwin Techsat 1B 02 Nov 03:47:49 03:52:50 44° 288° (WNW) 03:57:50 435.225 FM
AO-Echo 02 Nov 03:51:57 03:55:10 17° 296° (WNW) 03:58:23 ?
TMSAT-1 02 Nov 03:52:55 03:58:05 54° 287° (WNW) 04:03:12 436.925 FM
AO-7 02 Nov 03:53:17 04:00:42 34° 98° (E) 04:08:03 29.400 - 29.500 MHz
Uosat F 02 Nov 04:05:20 04:09:26 25° 96° (E) 04:13:30 435.120 FM
Uribyol 2 02 Nov 04:07:12 04:10:03 15° 296° (WNW) 04:12:53 436.500 FM
ITAMSAT 1 02 Nov 04:16:00 04:18:25 13° 297° (WNW) 04:20:49 435.822 SSB
Saudisat 1A 02 Nov 04:28:15 04:32:25 46° 115° (ESE) 04:36:37 436.775 MHz
PANSAT 02 Nov 04:59:49 05:03:08 28° 183° (S) 05:06:27 not established
RS-15 02 Nov 05:16:23 05:27:27 60° 55° (NE) 05:38:57 29.354 - 29.394 USB, Beacon 29.352 USB
OPAL 02 Nov 05:21:02 05:26:00 51° 258° (WSW) 05:30:56 ?
JAS-2 02 Nov 05:37:47 05:45:36 64° 100° (E) 05:52:58 435.800 - 435.900 CW/SSB, 435.910 FM
STRAND 1 02 Nov 05:42:15 05:46:34 28° 68° (ENE) 05:50:54 ?
Hamsat 02 Nov 05:42:16 05:46:10 35° 98° (E) 05:50:05 145.90 MHz
Uosat F 02 Nov 05:43:44 05:48:11 32° 290° (WNW) 05:52:37 435.120 FM
AO-7 02 Nov 05:45:41 05:53:32 48° 295° (WNW) 06:01:24 29.400 - 29.500 MHz
Saudisat 1A 02 Nov 06:09:16 06:12:12 17° 311° (NW) 06:15:09 436.775 MHz
